Westfield, MA

3:50 PM EDT on June 25, 2017 (GMT -0400)
Barnes Municipal

Weather History for KBAF - October, 2012

Change the Weather History Date:

Thursday, October 4, 2012

  Actual Average Record
Temperature  
Mean Temperature 64 °F -  
Max Temperature 66 °F 63 °F 86 °F (2007)
Min Temperature 60 °F 40 °F 33 °F (1996)
Degree Days  
Heating Degree Days 2    
Growing Degree Days 14 (Base 50)    
Moisture  
Dew Point 62 °F    
Average Humidity 93    
Maximum Humidity 100    
Minimum Humidity 87    
Precipitation  
Precipitation 0.33 in - - ()
Sea Level Pressure  
Sea Level Pressure 30.09 in    
Wind  
Wind Speed 2 mph (SE)    
Max Wind Speed 6 mph    
Max Gust Speed -    
Visibility 4 miles    
Events Fog , Rain    
Averages and records for this station are not official NWS values.
T = Trace of Precipitation, MM = Missing Value Source: NWS Daily Summary

Daily Weather History Graph

Daily Weather History Graph

Search for Another Location

Airport or City:

Trip Planner

Search our weather history database for the weather conditions in past years. The results will help you decide how hot, cold, wet, or windy it might be!

Date:

Astronomy

Oct. 04, 2012 Rise Set
Actual Time 6:51 AM EDT 6:26 PM EDT
Civil Twilight 6:23 AM EDT 6:54 PM EDT
Nautical Twilight 5:51 AM EDT 7:26 PM EDT
Astronomical Twilight 5:18 AM EDT 7:59 PM EDT
Moon 8:55 PM EDT (10/4) 11:11 AM EDT (10/4)
Length of Visible Light 12h 30m
Length of Day
11h 34m
Waning Gibbous, 82% of the Moon is Illuminated
Oct 4
Waning Gibbous
Oct 8
Last Quarter
Oct 15
New
Oct 21
First Quarter
Oct 29
Full

Hourly Weather History & Observations

Time (EDT) Temp. Dew Point Humidity Pressure Visibility Wind Dir Wind Speed Gust Speed Precip Events Conditions
12:04 AM 64.4 °F 62.6 °F 94% 30.14 in 2.5 mi NNE 3.5 mph - N/A   Overcast
12:53 AM 64.0 °F 62.1 °F 93% 30.14 in 2.5 mi Calm Calm - N/A   Overcast
1:53 AM 64.0 °F 62.1 °F 93% 30.14 in 2.0 mi Calm Calm - N/A   Overcast
2:05 AM 64.4 °F 62.6 °F 94% 30.14 in 1.8 mi North 3.5 mph - N/A   Overcast
2:20 AM 64.4 °F 62.6 °F 94% 30.14 in 1.5 mi North 3.5 mph - 0.01 in   Overcast
2:28 AM 64.4 °F 62.6 °F 94% 30.14 in 2.0 mi North 3.5 mph - 0.01 in   Overcast
2:41 AM 62.6 °F 62.6 °F 100% 30.12 in 3.0 mi NE 4.6 mph - 0.01 in   Overcast
2:53 AM 64.0 °F 62.1 °F 93% 30.14 in 3.0 mi Calm Calm - 0.01 in   Overcast
3:08 AM 64.4 °F 62.6 °F 94% 30.14 in 3.0 mi Calm Calm - N/A   Overcast
3:26 AM 62.6 °F 60.8 °F 94% 30.13 in 2.5 mi Calm Calm - N/A   Overcast
3:45 AM 62.6 °F 60.8 °F 94% 30.13 in 5.0 mi NE 3.5 mph - N/A   Overcast
3:53 AM 63.0 °F 61.0 °F 93% 30.14 in 10.0 mi North 4.6 mph - N/A   Overcast
4:53 AM 63.0 °F 61.0 °F 93% 30.14 in 5.0 mi Calm Calm - N/A   Overcast
5:53 AM 63.0 °F 61.0 °F 93% 30.14 in 10.0 mi Calm Calm - 0.00 in Rain Light Rain
6:53 AM 63.0 °F 60.1 °F 90% 30.14 in 10.0 mi Calm Calm - 0.00 in   Overcast
7:02 AM 62.6 °F 60.8 °F 94% 30.14 in 10.0 mi Calm Calm - N/A   Overcast
7:53 AM 63.0 °F 60.1 °F 90% 30.15 in 10.0 mi Calm Calm - N/A   Overcast
8:53 AM 63.0 °F 61.0 °F 93% 30.16 in 6.0 mi North 3.5 mph - 0.00 in   Overcast
9:53 AM 64.0 °F 60.1 °F 87% 30.15 in 10.0 mi ENE 3.5 mph - 0.00 in   Overcast
10:53 AM 64.0 °F 61.0 °F 90% 30.16 in 10.0 mi Calm Calm - 0.00 in   Overcast
11:53 AM 64.9 °F 61.0 °F 87% 30.14 in 10.0 mi NE 4.6 mph - 0.00 in Rain Light Rain
12:53 PM 64.0 °F 61.0 °F 90% 30.12 in 4.0 mi Calm Calm - 0.01 in Rain Light Rain
1:53 PM 64.9 °F 62.1 °F 90% 30.06 in 4.0 mi Variable 3.5 mph - 0.02 in   Overcast
2:53 PM 66.0 °F 62.1 °F 87% 30.07 in 3.0 mi NNW 4.6 mph - N/A   Overcast
3:53 PM 66.0 °F 62.1 °F 87% 30.06 in 10.0 mi Calm Calm - 0.00 in   Overcast
4:53 PM 66.0 °F 62.1 °F 87% 30.06 in 3.0 mi SSE 3.5 mph - N/A   Overcast
5:53 PM 64.9 °F 63.0 °F 93% 30.06 in 3.0 mi Calm Calm - 0.04 in Rain Rain
6:10 PM 64.4 °F 62.6 °F 94% 30.06 in 2.5 mi Calm Calm - 0.03 in Rain Rain
6:53 PM 64.9 °F 63.0 °F 93% 30.06 in 2.5 mi Calm Calm - 0.10 in Rain Rain
7:53 PM 64.0 °F 62.1 °F 93% 30.04 in 2.5 mi SSE 5.8 mph - 0.13 in Rain Heavy Rain
7:57 PM 64.4 °F 62.6 °F 94% 30.04 in 3.0 mi SSE 4.6 mph - 0.00 in Rain Rain
8:22 PM 64.4 °F 62.6 °F 94% 30.04 in 2.0 mi SSW 4.6 mph - 0.01 in   Overcast
8:53 PM 64.9 °F 63.0 °F 93% 30.05 in 1.0 mi Calm Calm - 0.01 in   Overcast
9:00 PM 64.4 °F 62.6 °F 94% 30.05 in 1.0 mi Calm Calm - N/A   Overcast
9:15 PM 64.4 °F 62.6 °F 94% 30.05 in 0.5 mi Calm Calm - N/A Fog Fog
9:24 PM 64.4 °F 62.6 °F 94% 30.05 in 0.5 mi Calm Calm - N/A Fog Fog
9:39 PM 64.4 °F 62.6 °F 94% 30.05 in 0.5 mi South 3.5 mph - N/A Fog Fog
9:50 PM 64.4 °F 62.6 °F 94% 30.05 in 0.2 mi SSW 5.8 mph - N/A Fog Fog
9:53 PM 64.0 °F 63.0 °F 96% 30.06 in 0.2 mi SSW 5.8 mph - N/A Fog Fog
10:02 PM 64.4 °F 62.6 °F 94% 30.05 in 0.5 mi SW 3.5 mph - N/A Fog Fog
10:44 PM 64.4 °F 62.6 °F 94% 30.05 in 0.2 mi South 3.5 mph - N/A Fog Fog
10:53 PM 64.0 °F 62.1 °F 93% 30.06 in 0.2 mi SSW 4.6 mph - N/A Fog Fog
11:00 PM 62.6 °F 62.6 °F 100% 30.05 in 0.5 mi SSW 3.5 mph - N/A Fog Fog
11:07 PM 62.6 °F 60.8 °F 94% 30.05 in 0.2 mi SSW 4.6 mph - N/A Fog Fog
11:31 PM 62.6 °F 60.8 °F 94% 30.05 in 0.5 mi Calm Calm - 0.01 in Fog Fog
11:53 PM 61.0 °F 59.0 °F 93% 30.05 in 0.5 mi Calm Calm - 0.01 in Fog Fog
11:58 PM 60.8 °F 59.0 °F 94% 30.05 in 2.0 mi Calm Calm - N/A   Mostly Cloudy